Total_Precipitation_Accumulation
0.32 0.30 0.35 0.41 0.43 0.52 0.67 0.84 1.09 0.97 0.76 0.64 0.63 0.59 0.60 0.67 0.60 0.56 0.55 0.55 0.56 0.55 0.55 0.56 0.60 0.68 0.76 0.88 1.08 1.20 1.29 1.28 1.18 1.11 1.01 0.93 0.85 0.76 0.77 0.68 0.65 0.71 0.87 1.02
0.18 0.19 0.24 0.34 0.47 0.60 0.67 0.73 0.75 0.66 0.62 0.48 0.45 0.41 0.41 0.47 0.48 0.48 0.44 0.39 0.39 0.43 0.44 0.49 0.52 0.60 0.61 0.72 0.89 1.01 1.09 1.13 1.19 1.15 0.98 0.87 0.77 0.69 0.66 0.65 0.64 0.64 0.73 0.87
0.21 0.17 0.28 0.49 0.58 0.65 0.65 0.59 0.51 0.49 0.43 0.32 0.29 0.25 0.25 0.31 0.36 0.41 0.40 0.34 0.32 0.33 0.36 0.43 0.52 0.56 0.60 0.71 0.84 0.87 0.93 0.96 1.01 1.01 0.86 0.79 0.68 0.61 0.59 0.59 0.61 0.61 0.67 0.80
0.31 0.26 0.50 0.68 0.55 0.50 0.56 0.45 0.31 0.28 0.28 0.25 0.21 0.18 0.16 0.17 0.19 0.22 0.25 0.26 0.30 0.29 0.29 0.32 0.40 0.51 0.65 0.69 0.70 0.71 0.77 0.78 0.79 0.81 0.76 0.69 0.59 0.56 0.57 0.59 0.63 0.63 0.65 0.69
0.47 0.44 0.55 0.61 0.42 0.40 0.48 0.46 0.26 0.19 0.18 0.15 0.14 0.13 0.11 0.11 0.13 0.14 0.14 0.17 0.21 0.21 0.21 0.22 0.25 0.28 0.34 0.40 0.44 0.45 0.55 0.63 0.67 0.69 0.67 0.62 0.56 0.62 0.67 0.65 0.66 0.64 0.60 0.60
0.55 0.63 0.70 0.48 0.21 0.20 0.35 0.55 0.24 0.14 0.12 0.10 0.11 0.14 0.12 0.12 0.13 0.11 0.10 0.10 0.13 0.17 0.16 0.15 0.16 0.17 0.20 0.24 0.28 0.31 0.37 0.45 0.54 0.60 0.63 0.65 0.75 0.82 0.84 0.79 0.71 0.63 0.60 0.57
0.60 0.80 0.75 0.44 0.20 0.22 0.42 0.57 0.29 0.14 0.10 0.11 0.12 0.12 0.10 0.11 0.11 0.10 0.09 0.08 0.10 0.12 0.13 0.14 0.15 0.14 0.17 0.20 0.21 0.23 0.23 0.29 0.41 0.58 0.67 0.76 0.88 0.91 0.88 0.81 0.69 0.62 0.59 0.57
0.75 0.97 0.99 0.50 0.28 0.35 0.34 0.23 0.18 0.12 0.11 0.10 0.10 0.09 0.09 0.09 0.08 0.09 0.10 0.08 0.08 0.09 0.10 0.13 0.15 0.13 0.15 0.22 0.22 0.26 0.26 0.27 0.35 0.47 0.61 0.77 0.88 0.86 0.84 0.84 0.76 0.67 0.64 0.63
0.83 0.83 0.64 0.38 0.28 0.22 0.16 0.16 0.10 0.09 0.10 0.10 0.09 0.09 0.09 0.10 0.09 0.08 0.08 0.08 0.09 0.10 0.10 0.11 0.12 0.14 0.15 0.18 0.22 0.24 0.27 0.23 0.25 0.33 0.48 0.66 0.76 0.77 0.78 0.79 0.76 0.73 0.67 0.64
0.42 0.31 0.24 0.20 0.18 0.13 0.10 0.10 0.07 0.06 0.06 0.10 0.12 0.11 0.09 0.09 0.09 0.09 0.09 0.08 0.08 0.09 0.10 0.10 0.12 0.14 0.17 0.20 0.20 0.21 0.23 0.24 0.22 0.23 0.28 0.37 0.45 0.52 0.60 0.64 0.65 0.66 0.66 0.66
0.32 0.19 0.14 0.14 0.14 0.11 0.09 0.09 0.08 0.07 0.06 0.07 0.11 0.11 0.08 0.09 0.08 0.09 0.09 0.09 0.08 0.10 0.12 0.11 0.13 0.12 0.15 0.19 0.22 0.22 0.23 0.24 0.25 0.26 0.29 0.31 0.34 0.37 0.41 0.44 0.54 0.61 0.61 0.63
0.30 0.20 0.15 0.13 0.13 0.14 0.12 0.10 0.09 0.08 0.10 0.11 0.12 0.12 0.11 0.09 0.08 0.08 0.09 0.10 0.10 0.12 0.13 0.13 0.13 0.14 0.14 0.16 0.18 0.20 0.21 0.21 0.20 0.22 0.25 0.26 0.29 0.31 0.34 0.34 0.41 0.45 0.46 0.46
0.15 0.15 0.14 0.12 0.14 0.14 0.11 0.09 0.08 0.08 0.08 0.09 0.10 0.12 0.09 0.07 0.07 0.11 0.13 0.11 0.10 0.12 0.13 0.14 0.14 0.14 0.16 0.17 0.16 0.19 0.20 0.20 0.20 0.19 0.22 0.25 0.25 0.27 0.30 0.30 0.28 0.28 0.32 0.35
0.08 0.12 0.16 0.15 0.13 0.12 0.10 0.08 0.08 0.07 0.07 0.07 0.08 0.10 0.09 0.07 0.08 0.11 0.11 0.12 0.13 0.13 0.14 0.15 0.14 0.13 0.15 0.17 0.19 0.21 0.23 0.25 0.25 0.26 0.26 0.24 0.25 0.29 0.32 0.33 0.29 0.22 0.23 0.28
0.09 0.10 0.13 0.13 0.12 0.10 0.09 0.08 0.08 0.08 0.07 0.09 0.10 0.09 0.10 0.11 0.13 0.15 0.15 0.13 0.11 0.11 0.13 0.16 0.15 0.15 0.16 0.19 0.21 0.22 0.22 0.23 0.25 0.29 0.29 0.29 0.30 0.34 0.34 0.32 0.29 0.26 0.24 0.24
0.11 0.11 0.12 0.13 0.11 0.09 0.09 0.08 0.07 0.08 0.07 0.10 0.12 0.10 0.09 0.11 0.14 0.18 0.22 0.19 0.15 0.12 0.14 0.17 0.18 0.19 0.21 0.23 0.24 0.24 0.24 0.27 0.27 0.28 0.30 0.33 0.32 0.32 0.30 0.29 0.27 0.25 0.24 0.25
0.14 0.13 0.12 0.11 0.09 0.07 0.07 0.08 0.09 0.09 0.08 0.10 0.14 0.13 0.10 0.09 0.11 0.15 0.17 0.19 0.19 0.17 0.15 0.18 0.22 0.24 0.24 0.25 0.26 0.27 0.26 0.27 0.29 0.28 0.25 0.27 0.28 0.28 0.28 0.26 0.25 0.23 0.22 0.23
0.14 0.12 0.09 0.08 0.06 0.07 0.08 0.10 0.10 0.09 0.09 0.11 0.14 0.15 0.13 0.12 0.12 0.13 0.16 0.21 0.20 0.17 0.16 0.18 0.23 0.26 0.27 0.28 0.28 0.29 0.28 0.26 0.23 0.23 0.25 0.25 0.26 0.27 0.29 0.32 0.31 0.28 0.27 0.26
0.11 0.09 0.07 0.07 0.07 0.09 0.11 0.12 0.11 0.10 0.10 0.11 0.12 0.14 0.15 0.15 0.15 0.15 0.17 0.23 0.24 0.21 0.17 0.16 0.21 0.22 0.24 0.26 0.26 0.26 0.27 0.26 0.25 0.24 0.24 0.26 0.29 0.29 0.30 0.31 0.33 0.32 0.33 0.32
0.14 0.12 0.11 0.10 0.12 0.13 0.13 0.13 0.12 0.11 0.10 0.11 0.12 0.14 0.15 0.15 0.15 0.16 0.18 0.25 0.27 0.24 0.18 0.18 0.18 0.18 0.21 0.23 0.28 0.25 0.26 0.23 0.24 0.27 0.28 0.30 0.31 0.32 0.32 0.31 0.32 0.33 0.32 0.32
0.19 0.18 0.17 0.16 0.16 0.14 0.14 0.14 0.13 0.13 0.13 0.13 0.14 0.15 0.16 0.17 0.16 0.17 0.20 0.25 0.23 0.19 0.19 0.21 0.18 0.18 0.21 0.27 0.33 0.30 0.28 0.25 0.26 0.28 0.28 0.30 0.33 0.36 0.40 0.37 0.34 0.32 0.31 0.31
0.20 0.19 0.18 0.16 0.16 0.16 0.15 0.14 0.14 0.15 0.14 0.16 0.16 0.16 0.19 0.21 0.20 0.19 0.20 0.23 0.23 0.25 0.24 0.22 0.20 0.22 0.25 0.29 0.28 0.30 0.31 0.29 0.28 0.29 0.30 0.31 0.33 0.38 0.42 0.44 0.41 0.37 0.37 0.38
0.18 0.18 0.19 0.18 0.17 0.17 0.16 0.16 0.17 0.17 0.18 0.19 0.20 0.23 0.28 0.30 0.29 0.28 0.27 0.25 0.24 0.27 0.24 0.23 0.26 0.31 0.32 0.26 0.26 0.28 0.30 0.33 0.34 0.35 0.37 0.39 0.39 0.41 0.45 0.47 0.48 0.46 0.45 0.46
0.23 0.21 0.21 0.21 0.20 0.20 0.21 0.22 0.21 0.21 0.23 0.25 0.26 0.28 0.33 0.36 0.36 0.35 0.34 0.35 0.33 0.30 0.26 0.28 0.31 0.33 0.34 0.29 0.31 0.33 0.34 0.38 0.41 0.43 0.45 0.47 0.46 0.48 0.50 0.51 0.52 0.53 0.52 0.53
0.30 0.27 0.28 0.31 0.32 0.31 0.31 0.30 0.28 0.26 0.26 0.29 0.30 0.28 0.31 0.33 0.34 0.37 0.38 0.38 0.37 0.36 0.34 0.38 0.39 0.39 0.35 0.34 0.37 0.39 0.40 0.43 0.48 0.50 0.50 0.51 0.51 0.51 0.51 0.54 0.55 0.56 0.57 0.58
0.28 0.27 0.27 0.30 0.34 0.33 0.33 0.32 0.33 0.33 0.32 0.33 0.33 0.32 0.33 0.32 0.32 0.34 0.37 0.40 0.41 0.43 0.40 0.37 0.36 0.37 0.37 0.40 0.42 0.43 0.43 0.44 0.45 0.45 0.48 0.53 0.56 0.56 0.57 0.59 0.59 0.61 0.63 0.64
0.26 0.24 0.24 0.28 0.32 0.31 0.31 0.33 0.37 0.40 0.41 0.42 0.45 0.43 0.40 0.39 0.39 0.38 0.38 0.40 0.45 0.46 0.45 0.44 0.43 0.42 0.43 0.45 0.47 0.48 0.49 0.48 0.46 0.46 0.49 0.52 0.57 0.61 0.63 0.64 0.65 0.68 0.70 0.71